San Angelo, TX

12:14 AM CDT on April 27, 2018 (GMT -0500)
San Angelo Regional-Mathis

Weather History for KSJT - October, 2013

Change the Weather History Date:

Tuesday, October 8, 2013

  Actual Average Record
Temperature  
Mean Temperature 65 °F 69 °F  
Max Temperature 84 °F 81 °F 99 °F (1979)
Min Temperature 45 °F 56 °F 36 °F (2012)
Degree Days  
Heating Degree Days 0 1  
Month to date heating degree days 10 8  
Since 1 July heating degree days 10 17  
Cooling Degree Days 0 5  
Month to date cooling degree days 58 47  
Year to date cooling degree days 2772 2412  
Growing Degree Days 14 (Base 50)    
Moisture  
Dew Point 43 °F    
Average Humidity 56    
Maximum Humidity 89    
Minimum Humidity 22    
Precipitation  
Precipitation 0.00 in 0.09 in 2.56 in (2011)
Month to date precipitation 0.02 0.69  
Year to date precipitation 16.40 17.22  
Snow  
Snow 0.00 in 0.00 in 0.00 in (2002)
Month to date snowfall 0.0 0.0  
Since 1 July snowfall 0.0 0.0  
Snow Depth 0.00 in    
Sea Level Pressure  
Sea Level Pressure 30.00 in    
Wind  
Wind Speed 6 mph (SSW)    
Max Wind Speed 17 mph    
Max Gust Speed 23 mph    
Visibility 10 miles    
Events      
T = Trace of Precipitation, MM = Missing Value Source: NWS Daily Summary

Daily Weather History Graph

Daily Weather History Graph

Search for Another Location

Airport or City:

Astronomy

Oct. 08, 2013 Rise Set
Actual Time 7:40 AM CDT 7:17 PM CDT
Civil Twilight 7:16 AM CDT 7:42 PM CDT
Nautical Twilight 6:47 AM CDT 8:10 PM CDT
Astronomical Twilight 6:19 AM CDT 8:38 PM CDT
Moon 11:22 AM CDT (10/8) 10:10 PM CDT (10/8)
Length of Visible Light 12h 26m
Length of Day
11h 37m
Waxing Crescent, 16% of the Moon is Illuminated
Oct 8
Waxing Crescent
Oct 11
First Quarter
Oct 18
Full
Oct 26
Last Quarter
Nov 3
New

Hourly Weather History & Observations

Time (CDT) Temp. Windchill Dew Point Humidity Pressure Visibility Wind Dir Wind Speed Gust Speed Precip Events Conditions
12:51 AM 55.0 °F - 43.0 °F 64% 30.05 in 10.0 mi WSW 4.6 mph - N/A   Clear
1:51 AM 55.0 °F - 44.1 °F 67% 30.06 in 10.0 mi West 4.6 mph - N/A   Clear
2:51 AM 50.0 °F - 44.1 °F 80% 30.05 in 10.0 mi South 3.5 mph - N/A   Clear
3:51 AM 48.9 °F - 43.0 °F 80% 30.04 in 10.0 mi WSW 4.6 mph - N/A   Clear
4:51 AM 48.0 °F - 43.0 °F 83% 30.03 in 10.0 mi WSW 3.5 mph - N/A   Clear
5:51 AM 45.0 °F 43.5 °F 41.0 °F 86% 30.04 in 10.0 mi WSW 3.5 mph - N/A   Clear
6:51 AM 46.9 °F - 41.0 °F 80% 30.05 in 10.0 mi SSW 5.8 mph - N/A   Clear
7:51 AM 48.9 °F - 39.9 °F 71% 30.06 in 10.0 mi South 4.6 mph - N/A   Clear
8:51 AM 52.0 °F - 45.0 °F 77% 30.07 in 10.0 mi Calm Calm - N/A   Clear
9:51 AM 60.1 °F - 45.0 °F 57% 30.07 in 10.0 mi Calm Calm - N/A   Clear
10:51 AM 69.1 °F - 45.0 °F 42% 30.06 in 10.0 mi SW 4.6 mph - N/A   Clear
11:51 AM 79.0 °F - 42.1 °F 27% 30.04 in 10.0 mi South 13.8 mph 18.4 mph N/A   Clear
12:51 PM 80.1 °F - 41.0 °F 25% 30.02 in 10.0 mi South 11.5 mph 18.4 mph N/A   Clear
1:51 PM 82.0 °F - 41.0 °F 23% 29.99 in 10.0 mi South 10.4 mph 19.6 mph N/A   Clear
2:51 PM 82.0 °F - 39.0 °F 22% 29.96 in 10.0 mi South 10.4 mph 20.7 mph N/A   Clear
3:51 PM 81.0 °F - 41.0 °F 24% 29.95 in 10.0 mi SSW 12.7 mph - N/A   Clear
4:51 PM 82.0 °F - 39.9 °F 22% 29.94 in 10.0 mi South 15.0 mph - N/A   Clear
5:51 PM 80.1 °F - 39.9 °F 24% 29.93 in 10.0 mi South 8.1 mph - N/A   Clear
6:51 PM 77.0 °F - 44.1 °F 31% 29.93 in 10.0 mi SSE 5.8 mph - N/A   Clear
7:51 PM 71.1 °F - 44.1 °F 38% 29.94 in 10.0 mi SSE 5.8 mph - N/A   Clear
8:51 PM 64.9 °F - 44.1 °F 47% 29.95 in 10.0 mi SE 5.8 mph - N/A   Clear
9:51 PM 60.1 °F - 45.0 °F 57% 29.95 in 10.0 mi Calm Calm - N/A   Clear
10:51 PM 59.0 °F - 44.1 °F 58% 29.94 in 10.0 mi SSW 4.6 mph - N/A   Clear
11:51 PM 55.9 °F - 44.1 °F 64% 29.94 in 10.0 mi SSW 6.9 mph - N/A   Clear